EZS91GN EDDH-LFSB

Flight info

Callsign EZS91GN
Flight time 1h 19m
Altitude 35000
Route IDEKO7G IDEKO N850 NIE DCT OTMON/N0427F340 DCT SWALM DCT OMOGI/N0433F350 T721 SUNEG T715 RIGVI
Aircraft A320/M-SDE3FGHIRWY/LB1

Departure

Time 2026-05-05 15:55
Airport Hamburg Helmut Schmidt Airport (EDDH)

Arrival

Time 2026-05-05 17:15
Airport EuroAirport Basel–Mulhouse–Freiburg (LFSB)
Time Latitude Longitude Altitude Speed Heading
2026-05-05 15:28 53.62843 10.00212 49 ft 0 kts 62°
2026-05-05 15:45 53.62843 10.00211 48 ft 1 kts 62°
2026-05-05 15:45 53.62832 10.00175 45 ft 4 kts 62°
2026-05-05 15:45 53.62821 10.00141 46 ft 4 kts 59°
2026-05-05 15:45 53.62804 10.00117 46 ft 4 kts 355°
2026-05-05 15:46 53.62779 10.00128 46 ft 3 kts 333°
2026-05-05 15:46 53.62777 10.00130 47 ft 0 kts 333°
2026-05-05 15:51 53.62804 10.00106 47 ft 7 kts 333°
2026-05-05 15:51 53.62841 10.00071 48 ft 6 kts 323°
2026-05-05 15:51 53.62858 10.00018 48 ft 5 kts 278°
2026-05-05 15:52 53.62847 9.99967 46 ft 5 kts 241°
2026-05-05 15:52 53.62846 9.99963 48 ft 0 kts 242°
2026-05-05 15:54 53.62841 9.99945 46 ft 8 kts 242°
2026-05-05 15:54 53.62810 9.99841 45 ft 8 kts 248°
2026-05-05 15:54 53.62832 9.99777 45 ft 7 kts 330°
2026-05-05 15:54 53.62907 9.99711 45 ft 30 kts 333°
2026-05-05 15:55 53.63335 9.99341 47 ft 105 kts 333°
2026-05-05 15:55 53.64170 9.98620 71 ft 159 kts 332°
2026-05-05 15:55 53.65150 9.97767 721 ft 160 kts 336°
2026-05-05 15:55 53.66150 9.96915 1436 ft 165 kts 336°
2026-05-05 15:56 53.67241 9.95990 1904 ft 185 kts 336°
2026-05-05 15:56 53.68465 9.94972 2364 ft 209 kts 336°
2026-05-05 15:56 53.69799 9.93851 3167 ft 214 kts 335°
2026-05-05 15:56 53.70684 9.93037 3796 ft 217 kts 327°
2026-05-05 15:57 53.71598 9.91008 4629 ft 226 kts 286°
2026-05-05 15:57 53.71607 9.88290 5265 ft 246 kts 259°
2026-05-05 15:57 53.71095 9.85392 5869 ft 266 kts 250°
2026-05-05 15:57 53.70416 9.82466 6846 ft 268 kts 249°
2026-05-05 15:58 53.69718 9.79539 7843 ft 270 kts 249°
2026-05-05 15:58 53.69038 9.76570 8818 ft 273 kts 250°
2026-05-05 15:58 53.68380 9.73541 9800 ft 276 kts 251°
2026-05-05 15:58 53.67735 9.70432 10402 ft 292 kts 251°
2026-05-05 15:59 53.67056 9.67063 10805 ft 312 kts 252°
2026-05-05 15:59 53.66245 9.63625 11517 ft 320 kts 242°
2026-05-05 15:59 53.64899 9.60608 12333 ft 326 kts 225°
2026-05-05 15:59 53.63057 9.58339 13162 ft 333 kts 209°
2026-05-05 16:00 53.60961 9.57096 13903 ft 341 kts 193°
2026-05-05 16:00 53.58586 9.56615 14634 ft 345 kts 188°
2026-05-05 16:00 53.56189 9.56168 15371 ft 348 kts 189°
2026-05-05 16:00 53.53770 9.55697 16089 ft 352 kts 189°
2026-05-05 16:01 53.51328 9.55211 16801 ft 355 kts 189°
2026-05-05 16:01 53.48859 9.54717 17516 ft 359 kts 189°
2026-05-05 16:01 53.46368 9.54219 18213 ft 362 kts 190°
2026-05-05 16:01 53.43853 9.53718 18831 ft 365 kts 189°
2026-05-05 16:02 53.41324 9.53216 19458 ft 368 kts 189°
2026-05-05 16:02 53.38764 9.52712 20106 ft 371 kts 189°
2026-05-05 16:02 53.36195 9.52205 20740 ft 373 kts 189°
2026-05-05 16:02 53.33608 9.51696 21369 ft 376 kts 189°
2026-05-05 16:03 53.30999 9.51184 22003 ft 379 kts 189°
2026-05-05 16:03 53.28372 9.50673 22639 ft 381 kts 189°
2026-05-05 16:03 53.25732 9.50165 23257 ft 384 kts 189°
2026-05-05 16:03 53.23064 9.49651 23803 ft 386 kts 190°
2026-05-05 16:04 53.20387 9.49125 24320 ft 388 kts 190°
2026-05-05 16:04 53.17700 9.48593 24837 ft 390 kts 190°
2026-05-05 16:04 53.14964 9.48051 25341 ft 391 kts 190°
2026-05-05 16:04 53.12255 9.47520 25829 ft 393 kts 190°
2026-05-05 16:05 53.09535 9.46995 26314 ft 394 kts 190°
2026-05-05 16:05 53.06842 9.46481 26771 ft 396 kts 190°
2026-05-05 16:05 53.04096 9.45957 27220 ft 398 kts 190°
2026-05-05 16:05 53.01303 9.45420 27675 ft 400 kts 190°
2026-05-05 16:06 52.98533 9.44882 28109 ft 401 kts 190°
2026-05-05 16:06 52.95756 9.44314 28538 ft 403 kts 191°
2026-05-05 16:06 52.92968 9.43717 28947 ft 405 kts 191°
2026-05-05 16:06 52.90168 9.43103 29349 ft 407 kts 191°
2026-05-05 16:07 52.87353 9.42484 29738 ft 409 kts 191°
2026-05-05 16:07 52.84524 9.41864 30093 ft 411 kts 191°
2026-05-05 16:07 52.81677 9.41248 30413 ft 413 kts 191°
2026-05-05 16:07 52.78824 9.40641 30730 ft 414 kts 191°
2026-05-05 16:08 52.75971 9.40037 31044 ft 415 kts 191°
2026-05-05 16:08 52.73088 9.39427 31358 ft 416 kts 191°
2026-05-05 16:08 52.70218 9.38822 31664 ft 417 kts 191°
2026-05-05 16:08 52.67343 9.38217 32094 ft 415 kts 192°
2026-05-05 16:09 52.64487 9.37618 32541 ft 412 kts 192°
2026-05-05 16:09 52.61652 9.37192 32989 ft 413 kts 186°
2026-05-05 16:09 52.58776 9.37137 33463 ft 410 kts 186°
2026-05-05 16:09 52.55931 9.37083 33939 ft 407 kts 186°
2026-05-05 16:10 52.53103 9.37028 34317 ft 406 kts 186°
2026-05-05 16:10 52.50280 9.36965 34602 ft 406 kts 186°
2026-05-05 16:10 52.47449 9.36897 34828 ft 408 kts 186°
2026-05-05 16:11 52.41829 9.36777 34891 ft 399 kts 185°
2026-05-05 16:12 52.30777 9.36537 34889 ft 397 kts 185°
2026-05-05 16:13 52.16964 9.36241 34855 ft 396 kts 185°
2026-05-05 16:13 52.11452 9.36131 34849 ft 396 kts 185°
2026-05-05 16:14 52.00447 9.35911 34831 ft 395 kts 185°
2026-05-05 16:15 51.89458 9.35689 34820 ft 395 kts 184°
2026-05-05 16:16 51.78458 9.35439 34821 ft 395 kts 184°
2026-05-05 16:17 51.70203 9.35271 34800 ft 395 kts 184°
2026-05-05 16:18 51.61944 9.35115 34792 ft 396 kts 184°
2026-05-05 16:19 51.53678 9.34939 34790 ft 396 kts 184°
2026-05-05 16:19 51.45410 9.34774 34793 ft 396 kts 184°
2026-05-05 16:20 51.34376 9.34553 34790 ft 397 kts 184°
2026-05-05 16:22 51.20726 9.32358 34791 ft 395 kts 191°
2026-05-05 16:23 51.09835 9.29707 34783 ft 394 kts 191°
2026-05-05 16:23 51.01678 9.27744 34778 ft 396 kts 191°
2026-05-05 16:24 50.96225 9.26429 34787 ft 397 kts 191°
2026-05-05 16:25 50.88035 9.24467 34792 ft 397 kts 191°
2026-05-05 16:25 50.79854 9.22508 34784 ft 396 kts 191°
2026-05-05 16:26 50.68950 9.19915 34783 ft 396 kts 190°
2026-05-05 16:27 50.63484 9.18780 34787 ft 397 kts 189°
2026-05-05 16:27 50.58003 9.17690 34783 ft 397 kts 189°
2026-05-05 16:28 50.52522 9.16577 34790 ft 397 kts 189°
2026-05-05 16:28 50.47036 9.15433 34792 ft 398 kts 189°
2026-05-05 16:29 50.42481 9.14486 34795 ft 398 kts 189°
2026-05-05 16:29 50.36092 9.13177 34797 ft 398 kts 189°
2026-05-05 16:30 50.30603 9.12057 34800 ft 398 kts 189°
2026-05-05 16:30 50.25105 9.10933 34803 ft 398 kts 189°
2026-05-05 16:31 50.19610 9.09814 34806 ft 398 kts 189°
2026-05-05 16:31 50.14109 9.08687 34804 ft 399 kts 189°
2026-05-05 16:32 50.09540 9.07753 34812 ft 399 kts 189°
2026-05-05 16:32 50.04030 9.06639 34808 ft 399 kts 189°
2026-05-05 16:33 49.98529 9.05532 34817 ft 399 kts 189°
2026-05-05 16:33 49.93013 9.04419 34825 ft 399 kts 189°
2026-05-05 16:34 49.87510 9.03303 34819 ft 399 kts 189°
2026-05-05 16:34 49.82014 9.02192 34824 ft 399 kts 189°
2026-05-05 16:35 49.76502 9.01087 34825 ft 399 kts 188°
2026-05-05 16:35 49.71003 8.99991 34827 ft 399 kts 188°
2026-05-05 16:36 49.65502 8.98894 34826 ft 398 kts 189°
2026-05-05 16:36 49.60033 8.97530 34823 ft 398 kts 191°
2026-05-05 16:37 49.54559 8.95943 34814 ft 397 kts 192°
2026-05-05 16:37 49.49157 8.94392 34823 ft 398 kts 191°
2026-05-05 16:38 49.43673 8.92878 34825 ft 398 kts 191°
2026-05-05 16:38 49.38213 8.91404 34823 ft 398 kts 191°
2026-05-05 16:39 49.32758 8.89930 34819 ft 399 kts 191°
2026-05-05 16:39 49.27294 8.88445 34820 ft 399 kts 191°
2026-05-05 16:40 49.21875 8.86685 34812 ft 397 kts 200°
2026-05-05 16:40 49.17078 8.82588 34810 ft 397 kts 219°
2026-05-05 16:41 49.12954 8.76962 34791 ft 399 kts 221°
2026-05-05 16:41 49.10879 8.74140 34548 ft 400 kts 220°
2026-05-05 16:41 49.08800 8.71316 34310 ft 400 kts 220°
2026-05-05 16:42 49.06723 8.68496 34065 ft 400 kts 220°
2026-05-05 16:42 49.04643 8.65676 33823 ft 400 kts 220°
2026-05-05 16:42 49.02570 8.62872 33550 ft 398 kts 220°
2026-05-05 16:42 49.00548 8.60137 33278 ft 397 kts 220°
2026-05-05 16:43 48.98426 8.57333 32996 ft 395 kts 219°
2026-05-05 16:43 48.96287 8.54741 32729 ft 393 kts 217°
2026-05-05 16:43 48.94105 8.52257 32458 ft 391 kts 216°
2026-05-05 16:43 48.91913 8.49833 32144 ft 387 kts 215°
2026-05-05 16:44 48.89738 8.47445 31619 ft 383 kts 215°
2026-05-05 16:44 48.87619 8.45104 31101 ft 380 kts 216°
2026-05-05 16:44 48.85472 8.42707 30591 ft 378 kts 216°
2026-05-05 16:44 48.83366 8.40334 30079 ft 375 kts 216°
2026-05-05 16:45 48.81334 8.38033 29535 ft 373 kts 216°
2026-05-05 16:45 48.79216 8.35627 29033 ft 368 kts 216°
2026-05-05 16:45 48.77177 8.33316 28546 ft 364 kts 216°
2026-05-05 16:45 48.75153 8.31043 28084 ft 360 kts 216°
2026-05-05 16:46 48.73143 8.28802 27625 ft 357 kts 216°
2026-05-05 16:46 48.71152 8.26593 27187 ft 353 kts 216°
2026-05-05 16:46 48.69183 8.24411 26746 ft 349 kts 216°
2026-05-05 16:46 48.67233 8.22251 26320 ft 346 kts 216°
2026-05-05 16:47 48.65305 8.20114 25892 ft 342 kts 216°
2026-05-05 16:47 48.63393 8.17996 25460 ft 339 kts 216°
2026-05-05 16:47 48.61499 8.15900 25016 ft 337 kts 216°
2026-05-05 16:47 48.59614 8.13817 24562 ft 335 kts 216°
2026-05-05 16:48 48.57735 8.11746 24106 ft 335 kts 216°
2026-05-05 16:48 48.55849 8.09664 23633 ft 336 kts 216°
2026-05-05 16:48 48.53958 8.07573 22894 ft 341 kts 216°
2026-05-05 16:48 48.52039 8.05455 22354 ft 340 kts 216°
2026-05-05 16:49 48.50136 8.03359 21899 ft 337 kts 216°
2026-05-05 16:49 48.48251 8.01284 21459 ft 334 kts 216°
2026-05-05 16:49 48.46381 7.99231 21030 ft 331 kts 216°
2026-05-05 16:49 48.44527 7.97198 20588 ft 329 kts 216°
2026-05-05 16:50 48.42710 7.95208 20173 ft 326 kts 216°
2026-05-05 16:50 48.40879 7.93201 19752 ft 324 kts 216°
2026-05-05 16:50 48.39062 7.91206 19330 ft 323 kts 216°
2026-05-05 16:50 48.37174 7.89388 18912 ft 321 kts 206°
2026-05-05 16:51 48.35077 7.88246 18472 ft 321 kts 193°
2026-05-05 16:51 48.32863 7.87780 17988 ft 323 kts 187°
2026-05-05 16:51 48.30628 7.87415 17491 ft 322 kts 187°
2026-05-05 16:51 48.28406 7.87041 17039 ft 321 kts 187°
2026-05-05 16:52 48.26185 7.86663 16580 ft 320 kts 187°
2026-05-05 16:52 48.23974 7.86285 16125 ft 320 kts 187°
2026-05-05 16:52 48.21767 7.85909 15686 ft 319 kts 187°
2026-05-05 16:52 48.19562 7.85531 15242 ft 319 kts 188°
2026-05-05 16:53 48.17430 7.84705 14791 ft 317 kts 206°
2026-05-05 16:53 48.15674 7.82751 14367 ft 317 kts 228°
2026-05-05 16:53 48.14560 7.79919 13928 ft 319 kts 250°
2026-05-05 16:53 48.14216 7.76625 13460 ft 322 kts 265°
2026-05-05 16:54 48.14095 7.73275 13010 ft 321 kts 265°
2026-05-05 16:54 48.13986 7.70038 12749 ft 303 kts 265°
2026-05-05 16:54 48.13881 7.66925 12134 ft 296 kts 264°
2026-05-05 16:54 48.13774 7.63900 11690 ft 286 kts 264°
2026-05-05 16:55 48.13663 7.60923 11270 ft 287 kts 264°
2026-05-05 16:55 48.13550 7.57935 10846 ft 288 kts 264°
2026-05-05 16:55 48.13414 7.54948 10413 ft 287 kts 259°
2026-05-05 16:55 48.12777 7.52170 9990 ft 279 kts 236°
2026-05-05 16:56 48.11513 7.50048 9833 ft 272 kts 216°
2026-05-05 16:56 48.09839 7.48752 9833 ft 272 kts 198°
2026-05-05 16:56 48.08058 7.47879 9836 ft 265 kts 198°
2026-05-05 16:56 48.06362 7.47064 9831 ft 246 kts 197°
2026-05-05 16:57 48.04769 7.46306 9832 ft 237 kts 197°
2026-05-05 16:57 48.03218 7.45566 9837 ft 229 kts 197°
2026-05-05 16:57 48.01701 7.44859 9840 ft 228 kts 193°
2026-05-05 16:57 48.00137 7.44888 9838 ft 228 kts 164°
2026-05-05 16:58 47.98794 7.46137 9846 ft 234 kts 134°
2026-05-05 16:58 47.98063 7.48326 9839 ft 243 kts 103°
2026-05-05 16:58 47.98230 7.50850 9842 ft 252 kts 69°
2026-05-05 16:58 47.99331 7.52860 9841 ft 252 kts 33°
2026-05-05 16:59 48.00929 7.53625 9854 ft 235 kts
2026-05-05 16:59 48.02505 7.54082 9678 ft 229 kts 16°
2026-05-05 16:59 48.04008 7.54820 9379 ft 226 kts 20°
2026-05-05 16:59 48.05481 7.55622 9074 ft 225 kts 20°
2026-05-05 17:00 48.06976 7.56247 8781 ft 223 kts
2026-05-05 17:00 48.08462 7.55844 8487 ft 216 kts 329°
2026-05-05 17:00 48.09546 7.54400 8212 ft 207 kts 297°
2026-05-05 17:00 48.09999 7.52422 7935 ft 199 kts 269°
2026-05-05 17:01 48.09810 7.50437 7619 ft 191 kts 244°
2026-05-05 17:01 48.09087 7.48816 7313 ft 186 kts 220°
2026-05-05 17:01 48.08002 7.47807 7006 ft 184 kts 200°
2026-05-05 17:01 48.06794 7.47169 6694 ft 184 kts 197°
2026-05-05 17:02 48.05584 7.46595 6422 ft 184 kts 197°
2026-05-05 17:02 48.04368 7.46003 6129 ft 183 kts 198°
2026-05-05 17:02 48.03159 7.45413 5836 ft 183 kts 197°
2026-05-05 17:02 48.01957 7.44825 5622 ft 180 kts 198°
2026-05-05 17:03 48.00753 7.44246 5545 ft 183 kts 198°
2026-05-05 17:03 47.99534 7.43666 5472 ft 184 kts 197°
2026-05-05 17:03 47.98316 7.43086 5401 ft 184 kts 197°
2026-05-05 17:03 47.97097 7.42504 5307 ft 184 kts 197°
2026-05-05 17:04 47.95879 7.41930 5187 ft 184 kts 197°
2026-05-05 17:04 47.94658 7.41356 5064 ft 184 kts 198°
2026-05-05 17:04 47.93439 7.40784 4939 ft 184 kts 197°
2026-05-05 17:04 47.92220 7.40213 4813 ft 184 kts 198°
2026-05-05 17:05 47.91006 7.39652 4583 ft 183 kts 198°
2026-05-05 17:05 47.89795 7.39102 4395 ft 180 kts 198°
2026-05-05 17:05 47.88623 7.38572 4301 ft 183 kts 197°
2026-05-05 17:05 47.87401 7.38026 4213 ft 183 kts 197°
2026-05-05 17:06 47.86177 7.37464 4127 ft 184 kts 198°
2026-05-05 17:06 47.84954 7.36911 4070 ft 184 kts 195°
2026-05-05 17:06 47.83697 7.36627 3993 ft 180 kts 184°
2026-05-05 17:06 47.82485 7.36920 3926 ft 177 kts 162°
2026-05-05 17:07 47.81343 7.37604 3839 ft 176 kts 159°
2026-05-05 17:07 47.80219 7.38346 3736 ft 177 kts 158°
2026-05-05 17:07 47.79097 7.39096 3615 ft 176 kts 158°
2026-05-05 17:07 47.78000 7.39830 3477 ft 171 kts 158°
2026-05-05 17:08 47.76918 7.40546 3340 ft 169 kts 158°
2026-05-05 17:08 47.75851 7.41252 3205 ft 167 kts 158°
2026-05-05 17:08 47.74788 7.41955 3073 ft 167 kts 158°
2026-05-05 17:08 47.73732 7.42659 2926 ft 166 kts 157°
2026-05-05 17:09 47.72677 7.43365 2781 ft 166 kts 157°
2026-05-05 17:09 47.71625 7.44067 2627 ft 166 kts 157°
2026-05-05 17:09 47.70575 7.44778 2484 ft 166 kts 156°
2026-05-05 17:09 47.69537 7.45521 2337 ft 165 kts 155°
2026-05-05 17:10 47.68514 7.46269 2180 ft 161 kts 154°
2026-05-05 17:10 47.67531 7.46993 2032 ft 156 kts 155°
2026-05-05 17:10 47.66563 7.47713 1877 ft 155 kts 155°
2026-05-05 17:10 47.65595 7.48413 1739 ft 154 kts 154°
2026-05-05 17:11 47.65024 7.49042 1639 ft 156 kts 130°
2026-05-05 17:11 47.64298 7.50904 1585 ft 151 kts 117°
2026-05-05 17:11 47.63991 7.51827 1610 ft 150 kts 117°
2026-05-05 17:11 47.63519 7.53195 1630 ft 149 kts 118°
2026-05-05 17:12 47.63203 7.54641 1597 ft 150 kts 91°
2026-05-05 17:12 47.63349 7.56157 1569 ft 149 kts 78°
2026-05-05 17:12 47.63499 7.57690 1576 ft 149 kts 91°
2026-05-05 17:12 47.63187 7.59138 1629 ft 151 kts 128°
2026-05-05 17:13 47.62341 7.59950 1585 ft 143 kts 166°
2026-05-05 17:13 47.61372 7.60097 1571 ft 140 kts 194°
2026-05-05 17:13 47.60501 7.59540 1573 ft 136 kts 216°
2026-05-05 17:13 47.59857 7.58564 1559 ft 133 kts 244°
2026-05-05 17:14 47.59608 7.57250 1465 ft 133 kts 264°
2026-05-05 17:14 47.59452 7.55893 1197 ft 132 kts 258°
2026-05-05 17:14 47.59243 7.54564 1009 ft 132 kts 257°
2026-05-05 17:14 47.59040 7.53249 873 ft 124 kts 257°
2026-05-05 17:15 47.58902 7.52394 870 ft 54 kts 257°
2026-05-05 17:15 47.58840 7.51986 869 ft 20 kts 258°
2026-05-05 17:15 47.58811 7.51799 866 ft 8 kts 259°
2026-05-05 17:15 47.58820 7.51715 865 ft 8 kts 306°
2026-05-05 17:16 47.58851 7.51691 869 ft 2 kts 344°
2026-05-05 17:16 47.58899 7.51675 873 ft 8 kts 348°
2026-05-05 17:16 47.58943 7.51678 874 ft 7 kts 22°
2026-05-05 17:16 47.58996 7.51747 874 ft 11 kts 45°
2026-05-05 17:17 47.59045 7.51821 875 ft 9 kts 45°
2026-05-05 17:17 47.59102 7.51906 875 ft 13 kts 45°
2026-05-05 17:17 47.59162 7.51994 875 ft 11 kts 45°
2026-05-05 17:17 47.59216 7.52073 876 ft 10 kts 45°
2026-05-05 17:18 47.59260 7.52149 876 ft 9 kts 56°
2026-05-05 17:18 47.59289 7.52231 876 ft 9 kts 65°
2026-05-05 17:18 47.59312 7.52308 875 ft 9 kts 66°
2026-05-05 17:18 47.59340 7.52396 875 ft 9 kts 64°
2026-05-05 17:19 47.59374 7.52503 875 ft 16 kts 64°
2026-05-05 17:19 47.59426 7.52668 875 ft 18 kts 65°
2026-05-05 17:19 47.59470 7.52802 876 ft 12 kts 63°
2026-05-05 17:19 47.59529 7.52839 876 ft 10 kts 341°
2026-05-05 17:20 47.59590 7.52797 876 ft 10 kts 335°
2026-05-05 17:20 47.59637 7.52835 876 ft 8 kts 64°
2026-05-05 17:20 47.59660 7.52909 876 ft 8 kts 65°
2026-05-05 17:20 47.59682 7.52979 876 ft 7 kts 65°
2026-05-05 17:21 47.59717 7.53024 877 ft 7 kts 12°
2026-05-05 17:21 47.59762 7.53039 877 ft 6 kts 27°
2026-05-05 17:21 47.59795 7.53072 878 ft 3 kts 38°
2026-05-05 17:22 47.59820 7.53130 879 ft 3 kts 64°
2026-05-05 17:22 47.59826 7.53151 879 ft 1 kts 65°
2026-05-05 17:22 47.59828 7.53157 879 ft 0 kts 65°